www.pogodaiklimat.ru
ПОГОДА в Центральном Руднике
Время
(UTC), дата
00 30.07
03 30.07
06 30.07
09 30.07
12 30.07
15 30.07
18 30.07
21 30.07
00 31.07
03 31.07
06 31.07
09 31.07
12 31.07
15 31.07
18 31.07
21 31.07
00 1.08
03 1.08
06 1.08
09 1.08
12 1.08
15 1.08
18 1.08
21 1.08
00 2.08
03 2.08
06 2.08
09 2.08
12 2.08
15 2.08
18 2.08
21 2.08
00 3.08
03 3.08
06 3.08
09 3.08
12 3.08
15 3.08
18 3.08
21 3.08
00 4.08
03 4.08
06 4.08
09 4.08
12 4.08
15 4.08
18 4.08
21 4.08
00 5.08
03 5.08
06 5.08
09 5.08
12 5.08
15 5.08
18 5.08
21 5.08
Ветер
(напр.,м/с)
Видим. Явления Облачность Т
(С)
Тd
(С)
f
(%)
Тe
(С)
Тes
(С)
Комфортность P
(гПа)
Po
(гПа)
Тmin
(С)
Tmax
(С)
R
(мм)
R24
(мм)
S
(см)
Ю 3 50 км {ливн. дождь} 9/6 600 м
[Cb cap Ac As]
+14.7 +12.6 87 +14 +14 1005.1 948.0 +13.6 0.6
Ю 3
{10}
50 км в посл. час ливневой дождь 10/8 600 м
[Cb cap Ac und]
+14.3 +13.0 92 +13 +14 1006.2 949.0
ЮЗ 1 50 км в посл. час ливневой дождь 10/8 600 м
[Cb cap Ac und]
+15.1 +13.8 92 +16 +17 1008.2 951.0
Ю 1 50 км {ливн. дождь} 9/9 600 м
[]
+16.7 +14.1 85 +18 +19 1009.4 952.5
штиль 0 50 км {ливн. дождь} 9/6 600 м
[Cb cap Ac As Ci fib]
+18.2 +13.2 73 +18 +19 1010.4 953.6 +18.2 6
ЮВ 2 50 км 5/3 600 м
[Cb cap Ac As Ci fib]
+13.2 +10.6 84 +12 +12 1012.9 955.0
Ю 2 50 км 8/5 600 м
[Cb cap Ac As Ci fib]
+12.0 +10.9 93 +11 +11 1013.7 955.5
В 1 50 км туман на расстоянии 10/6 600 м
[Cb cap Ac As Ci fib]
+11.6 +10.5 93 +11 +11 1014.6 956.3
штиль 0 50 км туман на расстоянии 6/3 1000 м
[Sc Ac trans Ci fib]
+12.3 +11.0 92 +12 +12 1015.1 956.9 +10.5
Ю 2 50 км 9/3 600 м
[Cb calv Ac As Ci sp]
+15.6 +11.2 75 +16 +19 1014.4 956.9
Ю 2 50 км 9/5 600 м
[Cb cap Ac trans Ci fib]
+18.5 +9.6 56 +19 +24 1013.4 956.5
Ю 2 50 км 8/4 600 м
[Cb calv Ac trans Ci fib]
+20.2 +6.0 40 +22 +25 комфорт 1012.5 955.9
Ю 1 50 км 9/3 600 м
[Cb calv Cc]
+19.8 +6.1 41 +22 +23 комфорт 1012.7 956.0 +21.1
штиль 0 50 км 8/3 1000 м
[Sc Ac As Ci fib]
+11.5 +8.0 79 +11 +11 1014.8 956.4
ЮВ 1 50 км 6/3 1000 м
[Sc Ac As Ci fib]
+8.6 +6.4 86 +8 +8 1015.6 956.6
С 1 50 км 4/1 1000 м
[Sc Ac As Ci fib]
+8.0 +6.7 91 +7 +7 1015.9 956.7
З 1 50 км 9/5 1000 м
[Sc Ac As]
+10.3 +8.2 87 +10 +10 1016.0 957.3 +7.9
ЮВ 1 50 км 8/3 1000 м
[Sc Ac As Cs]
+19.0 +10.3 57 +21 +25 комфорт 1014.9 958.0
ЮЗ 2 50 км 9/6 600 м
[Cb calv Ac As Cs]
+20.2 +9.4 50 +22 +26 комфорт 1014.8 958.1
штиль 0 50 км 9/5 600 м
[Cb calv Ac As]
+20.2 +9.6 50 +21 +24 комфорт 1015.4 958.7
СВ 2 50 км 8/3 600 м
[Cb calv Ac trans Ci fib]
+19.7 +10.8 56 +22 +22 комфорт 1015.6 958.8 +21.8
С 1 50 км 8/3 1000 м
[Sc diur, vesp Ac trans Ci fib]
+15.6 +8.1 61 +16 +16 1017.2 959.5
СВ 1 50 км 8/4 1000 м
[Sc Ac As Ci fib]
+12.2 +9.1 81 +12 +12 1018.2 959.8
штиль 0 50 км 9/3 1000 м
[Sc Ac As Ci fib]
+10.1 +8.9 92 +9 +9 1018.7 959.9
штиль 0 50 км 9/3 1000 м
[Sc Ac trans Ci fib]
+12.8 +11.5 92 +12 +13 1018.3 960.0 +10.0
СВ 2 50 км 6/1 1000 м
[Sc Ac lent Ci fib]
+19.3 +10.4 56 +21 +26 комфорт 1017.3 960.3
В 2 50 км 8/3 1000 м
[Cu hum Ci fib]
+21.2 +9.2 46 +22 +31 комфорт 1016.6 960.0
С 2 50 км 8/4 1000 м
[Cu hum Ac trans Ci fib]
+23.1 +11.4 48 +25 +29 комфорт 1015.9 959.8
С 3 50 км 3/0
[Ac lent Ci fib]
+21.5 +10.4 49 +23 +24 комфорт 1016.4 959.9 +23.3
СВ 3 50 км 5/0
[Ac lent Ci fib]
+17.7 +11.0 65 +18 +18 1017.6 960.3
СВ 1 50 км 4/0
[Ac lent Ci fib]
+16.2 +10.8 70 +17 +17 1017.1 959.6
штиль 0 50 км 3/0
[Ci fib]
+12.6 +10.3 86 +12 +12 1017.6 959.4
СВ 2 50 км 9/0
[Ac lent Ci]
+16.7 +11.5 71 +17 +18 1016.9 959.5 +12.3
СВ 5-10
{11}
50 км 6/3 600 м
[Cb calv Ac As Ci fib]
+20.3 +12.3 60 +22 +25 комфорт 1015.9 959.3
СВ 4
{10}
50 км 6/4 600 м
[Cb calv Ac As Ci fib]
+22.7 +11.2 48 +25 +29 комфорт 1015.2 959.0
СВ 4
{10}
50 км 8/6 600 м
[Cb cap Ci fib]
+23.5 +11.2 46 +25 +27 комфорт 1013.9 957.9
СВ 2 50 км 6/5 600 м
[Cb cap Ci fib]
+23.5 +11.8 48 +25 +26 комфорт 1013.6 957.6 +24.9
С 2 50 км 3/0
[Ac lent Ci fib]
+18.7 +11.8 64 +20 +20 1014.4 957.5
СВ 3 50 км 1/0
[Ci fib]
+18.5 +11.6 64 +19 +19 1013.4 956.5
З 2 50 км 3/0
[Ci fib]
+14.4 +11.1 81 +14 +14 1013.5 955.8
СВ 2 50 км ясно +18.3 +11.2 63 +19 +20 1012.6 955.8 +14.1
СВ 3 50 км ясно +22.3 +11.4 50 +24 +31 комфорт 1011.3 955.2
СВ 4
{10}
50 км 6/5 600 м
[Cb calv Ci fib]
+24.4 +12.1 46 +26 +30 жарко 1009.7 954.1
С 4
{10}
50 км 6/4 600 м
[Cb calv Ci fib]
+25.2 +10.3 39 +26 +30 жарко 1008.9 953.5
С 2
{12}
50 км 6/4 600 м
[Cb calv Ci fib]
+22.5 +11.6 50 +25 +26 комфорт 1009.6 953.7 +25.7
С 2
{10}
50 км 3/1 1000 м
[Sc Ci fib]
+17.9 +10.6 62 +18 +18 1011.0 954.1
С 1 50 км 3/0
[Ci fib]
+15.4 +10.7 74 +16 +16 1011.1 953.7
СВ 4 50 км 1/0
[Ci fib]
+14.9 +8.8 67 +14 +14 1011.0 953.5
С 1 50 км 3/0
[Ac trans Ci fib]
+13.6 +9.3 75 +14 +15 1011.6 953.8 +12.0
С 2 50 км 5/0
[Ac cast Ci fib]
+20.4 +10.3 52 +23 +29 комфорт 1010.3 953.9
СВ 4-10
{10}
50 км 6/4 1000 м
[Cu hum Ci fib]
+22.3 +8.7 42 +24 +29 комфорт 1010.1 954.1
СВ 4
{11}
50 км 6/5 600 м
[Cb calv Ci fib]
+22.8 +9.4 42 +24 +27 комфорт 1010.2 954.2
С 1 50 км 5/3 1000 м
[Cu hum Ci sp]
+22.0 +8.7 43 +23 +24 комфорт 1010.7 954.6 +23.6
СВ 2 50 км 5/3 600 м
[Cb calv Ac As Ci fib]
+14.2 +10.6 79 +14 +14 1012.2 954.6
С 1 50 км 6/4 600 м
[Cb calv Ac As Ci fib]
+11.9 +9.5 85 +12 +12 1012.7 954.6
штиль 0 50 км 5/3 600 м
[Cb calv Ci fib]
+9.1 +7.9 92 +8 +8 1012.9 954.1
Местоположение метеостанции Центральный Рудник (Кемеровская область, Россия): широта 55.20 долгота 87.65 высота над уровнем моря 498 м.
В архиве по умолчанию представлена погода в Центральном Руднике за последнюю неделю. Архивные данные за месяц целиком и за предыдущие месяцы, начиная с января 2011 года, Вы можете получить, выбрав интересующий диапазон дат из раскрывающегося списка и нажав кнопку "Найти!".
*Определитесь, кто Вы:
Внимание! Время в таблицах - всемирное. Для получения местного времени необходимо прибавить поправку, которая равна 7 ч.
Смотрите также архив погоды в соседних городах и на ближайших метеорологических станциях:
Партнеры нашего сайта:      
Пояснения к столбцам:
  • Ветер - указаны скорость ветра в м/с - средняя за 10 мин, порывы в срок и между сроками (в фигурных скобках) и направление, откуда дует ветер: С - северный,
  • СВ - северо-восточный, В - восточный, ЮВ - юго-восточный, Ю - южный, ЮЗ - юго-западный, З - западный, СЗ - северо-западный.
  • Видимость - горизонтальная дальность видимости в метрах или километрах. При видимости от 1 до 10 км при отсутствии осадков обычно наблюдается дымка, при ухудшении видимости до 1 км и менее - туман. В сухую погоду видимость может ухудшаться дымом, пылью или мглою.
  • Явления - указаны атмосферные явления, наблюдавшиеся в срок или в последний час перед сроком; фигурными скобками обозначены явления, наблюдавшиеся между сроками (за 1-3 часа до срока); квадратными скобками обозначены град или гололедные отложения с указанием их диаметра в мм.
  • Облачность - указаны через наклонную черту общая и нижняя облачность в баллах и высота нижней границы облаков в метрах; квадратными скобками обозначены формы облаков: Ci - перистые, Cs - перисто-слоистые, Cc - перисто-кучевые, Ac - высококучевые, As - высокослоистые, Sc - слоисто-кучевые, Ns - слоисто-дождевые, Cu - кучевые, Cb - кучево-дождевые. Подробнее классификацию облаков см. в Атласе облаков (PDF).
  • T - Температура воздуха - температура, измеренная на высоте 2 м над землей.
  • Td - Температура точки росы - температура, при понижении до которой содержащийся в воздухе водяной пар достигнет насыщения.
  • f - Относительная влажность воздуха - влажноcть воздуха, измеренная на высоте 2 м над землей.
  • Te - Эффективная температура - температура, которую ощущает одетый по сезону человек в тени. Характеристика душности погоды. При расчете учитывается влияние влажности воздуха и скорости ветра на теплоощущения человека.
  • Tes - Эффективная температура на солнце - температура, которую ощущает человек, с поправкой на солнечный нагрев. Характеристика знойности погоды. Зависит от высоты солнца над горизонтом, облачности и скорости ветра. Ночью, в пасмурную погоду, а также при ветре 12 м/с и более поправка равна нулю.
  • P - Атмосферное давление - приведенное к уровню моря атмосферное давление.
  • Po - Атмосферное давление - измеренное на уровне метеостанции атмосферное давление.
  • Tmin - Минимальная температура - минимум температуры воздуха на высоте 2 м над землей.
  • Tmax - Максимальная температура - максимум температуры воздуха на высоте 2 м над землей.
  • R - Количество осадков - Количество выпавших осадков за период времени, мм. При наведении курсора мыши на число - период времени, за который выпало указанное количество осадков.
  • R24 - Количество осадков - Количество выпавших осадков за 24 часа, мм.
  • S - Снежный покров - Высота снежного покрова, см. При наведении курсора мыши на число - состояние снежного покрова и степень покрытия местности в баллах.